Time,TemperatureF,DewpointF,PressureIn,WindDirection,WindDirectionDegrees,WindSpeedMPH,WindSpeedGustMPH,Humidity,HourlyPrecipIn,Conditions,Clouds,dailyrainin,SoftwareType,DateUTC
2013-03-27 00:23:00,43.0,33.0,-100.00,NNW,347,6.0,-999.0,66,0.00,,,-99.99,,2013-03-27 05:23:00,
2013-03-27 00:33:00,43.0,33.0,-100.00,NNW,347,6.0,-999.0,66,0.00,,,-99.99,,2013-03-27 05:33:00,
2013-03-27 00:42:00,43.0,33.0,-100.00,NNW,347,6.0,-999.0,66,0.00,,,-99.99,,2013-03-27 05:42:00,
2013-03-27 01:22:00,41.0,33.0,-100.00,North,354,6.0,-999.0,73,0.00,,,-99.99,,2013-03-27 06:22:00,
2013-03-27 01:32:00,41.0,33.0,-100.00,North,354,6.0,-999.0,73,0.00,,,-99.99,,2013-03-27 06:32:00,
2013-03-27 01:42:00,41.0,33.0,-100.00,North,354,6.0,-999.0,73,0.00,,,-99.99,,2013-03-27 06:42:00,
2013-03-27 02:22:00,39.0,33.0,-100.00,North,354,7.0,-999.0,79,0.00,,,-99.99,,2013-03-27 07:22:00,
2013-03-27 02:32:00,39.0,33.0,-100.00,North,354,7.0,-999.0,79,0.00,,,-99.99,,2013-03-27 07:32:00,
2013-03-27 02:42:00,39.0,33.0,-100.00,North,354,7.0,-999.0,79,0.00,,,-99.99,,2013-03-27 07:42:00,
2013-03-27 03:22:00,37.0,33.0,-100.00,North,10,6.0,-999.0,84,0.00,,,-99.99,,2013-03-27 08:22:00,
2013-03-27 03:32:00,37.0,33.0,-100.00,North,10,6.0,-999.0,84,0.00,,,-99.99,,2013-03-27 08:32:00,
2013-03-27 03:43:00,37.0,33.0,-100.00,North,10,6.0,-999.0,84,0.00,,,-99.99,,2013-03-27 08:43:00,
2013-03-27 04:22:00,36.0,32.0,-100.00,North,8,6.0,-999.0,87,0.00,,,-99.99,,2013-03-27 09:22:00,
2013-03-27 04:32:00,36.0,32.0,-100.00,North,8,6.0,-999.0,87,0.00,,,-99.99,,2013-03-27 09:32:00,
2013-03-27 04:42:00,36.0,32.0,-100.00,North,8,6.0,-999.0,87,0.00,,,-99.99,,2013-03-27 09:42:00,
2013-03-27 05:23:00,35.0,32.0,-100.00,North,7,6.0,-999.0,88,0.00,,,-99.99,,2013-03-27 10:23:00,
2013-03-27 05:32:00,35.0,32.0,-100.00,North,7,6.0,-999.0,88,0.00,,,-99.99,,2013-03-27 10:32:00,
2013-03-27 05:42:00,35.0,32.0,-100.00,North,7,6.0,-999.0,88,0.00,,,-99.99,,2013-03-27 10:42:00,
2013-03-27 06:22:00,35.0,32.0,-100.00,North,6,5.0,-999.0,90,0.00,,,-99.99,,2013-03-27 11:22:00,
2013-03-27 06:32:00,35.0,32.0,-100.00,North,6,5.0,-999.0,90,0.00,,,-99.99,,2013-03-27 11:32:00,
2013-03-27 06:42:00,35.0,32.0,-100.00,North,6,5.0,-999.0,90,0.00,,,-99.99,,2013-03-27 11:42:00,
2013-03-27 07:23:00,34.0,32.0,-100.00,NNE,17,5.0,-999.0,91,0.00,,,-99.99,,2013-03-27 12:23:00,
2013-03-27 07:32:00,34.0,32.0,-100.00,NNE,17,5.0,-999.0,91,0.00,,,-99.99,,2013-03-27 12:32:00,
2013-03-27 07:43:00,34.0,32.0,-100.00,NNE,17,5.0,-999.0,91,0.00,,,-99.99,,2013-03-27 12:43:00,
2013-03-27 08:22:00,37.0,34.0,-100.00,NNE,21,4.0,-999.0,88,0.00,,,-99.99,,2013-03-27 13:22:00,
2013-03-27 08:32:00,37.0,34.0,-100.00,NNE,21,4.0,-999.0,88,0.00,,,-99.99,,2013-03-27 13:32:00,
2013-03-27 08:42:00,37.0,34.0,-100.00,NNE,21,4.0,-999.0,88,0.00,,,-99.99,,2013-03-27 13:42:00,
2013-03-27 09:22:00,42.0,33.0,-100.00,ENE,61,10.0,-999.0,70,0.00,,,-99.99,,2013-03-27 14:22:00,
2013-03-27 09:32:00,42.0,33.0,-100.00,ENE,61,10.0,-999.0,70,0.00,,,-99.99,,2013-03-27 14:32:00,
2013-03-27 09:42:00,42.0,33.0,-100.00,ENE,61,10.0,-999.0,70,0.00,,,-99.99,,2013-03-27 14:42:00,
2013-03-27 10:22:00,45.0,30.0,-100.00,NE,54,10.0,-999.0,56,0.00,,,-99.99,,2013-03-27 15:22:00,
2013-03-27 10:33:00,45.0,30.0,-100.00,NE,54,10.0,-999.0,56,0.00,,,-99.99,,2013-03-27 15:33:00,
2013-03-27 10:42:00,45.0,30.0,-100.00,NE,54,10.0,-999.0,56,0.00,,,-99.99,,2013-03-27 15:42:00,
2013-03-27 11:22:00,46.0,30.0,-100.00,ENE,66,6.0,-999.0,53,0.00,,,-99.99,,2013-03-27 16:22:00,
2013-03-27 11:32:00,46.0,30.0,-100.00,ENE,66,6.0,-999.0,53,0.00,,,-99.99,,2013-03-27 16:32:00,
2013-03-27 11:42:00,46.0,30.0,-100.00,ENE,66,6.0,-999.0,53,0.00,,,-99.99,,2013-03-27 16:42:00,
2013-03-27 12:22:00,47.0,32.0,-100.00,SE,139,8.0,-999.0,54,0.00,,,-99.99,,2013-03-27 17:22:00,
2013-03-27 12:32:00,47.0,32.0,-100.00,SE,139,8.0,-999.0,54,0.00,,,-99.99,,2013-03-27 17:32:00,
2013-03-27 12:44:00,47.0,32.0,-100.00,SE,139,8.0,-999.0,54,0.00,,,-99.99,,2013-03-27 17:44:00,
2013-03-27 13:22:00,48.0,33.0,-100.00,SSE,161,8.0,-999.0,56,0.00,,,-99.99,,2013-03-27 18:22:00,
2013-03-27 13:32:00,48.0,33.0,-100.00,SSE,161,8.0,-999.0,56,0.00,,,-99.99,,2013-03-27 18:32:00,
2013-03-27 13:42:00,48.0,33.0,-100.00,SSE,161,8.0,-999.0,56,0.00,,,-99.99,,2013-03-27 18:42:00,
2013-03-27 14:22:00,48.0,35.0,-100.00,South,178,8.0,-999.0,60,0.00,,,-99.99,,2013-03-27 19:22:00,
2013-03-27 14:32:00,48.0,35.0,-100.00,South,178,8.0,-999.0,60,0.00,,,-99.99,,2013-03-27 19:32:00,
2013-03-27 14:42:00,48.0,35.0,-100.00,South,178,8.0,-999.0,60,0.00,,,-99.99,,2013-03-27 19:42:00,
2013-03-27 15:22:00,50.0,37.0,-100.00,SSW,196,8.0,-999.0,59,0.00,,,-99.99,,2013-03-27 20:22:00,
2013-03-27 15:32:00,50.0,37.0,-100.00,SSW,196,8.0,-999.0,59,0.00,,,-99.99,,2013-03-27 20:32:00,
2013-03-27 15:42:00,50.0,37.0,-100.00,SSW,196,8.0,-999.0,59,0.00,,,-99.99,,2013-03-27 20:42:00,
2013-03-27 16:22:00,52.0,38.0,-100.00,SSW,207,9.0,-999.0,60,0.00,,,-99.99,,2013-03-27 21:22:00,
2013-03-27 16:32:00,52.0,38.0,-100.00,SSW,207,9.0,-999.0,60,0.00,,,-99.99,,2013-03-27 21:32:00,
2013-03-27 16:43:00,52.0,38.0,-100.00,SSW,207,9.0,-999.0,60,0.00,,,-99.99,,2013-03-27 21:43:00,
2013-03-27 17:23:00,53.0,39.0,-100.00,SW,216,9.0,-999.0,58,0.00,,,-99.99,,2013-03-27 22:23:00,
2013-03-27 17:33:00,53.0,39.0,-100.00,SW,216,9.0,-999.0,58,0.00,,,-99.99,,2013-03-27 22:33:00,
2013-03-27 17:42:00,53.0,39.0,-100.00,SW,216,9.0,-999.0,58,0.00,,,-99.99,,2013-03-27 22:42:00,
2013-03-27 18:22:00,53.0,40.0,-100.00,SW,234,9.0,-999.0,61,0.00,,,-99.99,,2013-03-27 23:22:00,
2013-03-27 18:32:00,53.0,40.0,-100.00,SW,234,9.0,-999.0,61,0.00,,,-99.99,,2013-03-27 23:32:00,
2013-03-27 18:42:00,53.0,40.0,-100.00,SW,234,9.0,-999.0,61,0.00,,,-99.99,,2013-03-27 23:42:00,
2013-03-27 19:22:00,52.0,41.0,-100.00,WSW,242,9.0,-999.0,66,0.00,,,-99.99,,2013-03-28 00:22:00,
2013-03-27 19:32:00,52.0,41.0,-100.00,WSW,242,9.0,-999.0,66,0.00,,,-99.99,,2013-03-28 00:32:00,
2013-03-27 19:43:00,52.0,41.0,-100.00,WSW,242,9.0,-999.0,66,0.00,,,-99.99,,2013-03-28 00:43:00,
2013-03-27 20:22:00,51.0,42.0,-100.00,WSW,253,6.0,-999.0,71,0.00,,,-99.99,,2013-03-28 01:22:00,
2013-03-27 20:32:00,51.0,42.0,-100.00,WSW,253,6.0,-999.0,71,0.00,,,-99.99,,2013-03-28 01:32:00,
2013-03-27 20:42:00,51.0,42.0,-100.00,WSW,253,6.0,-999.0,71,0.00,,,-99.99,,2013-03-28 01:42:00,
2013-03-27 21:22:00,50.0,42.0,-100.00,WNW,283,3.0,-999.0,74,0.00,,,-99.99,,2013-03-28 02:22:00,
2013-03-27 21:32:00,50.0,42.0,-100.00,WNW,283,3.0,-999.0,74,0.00,,,-99.99,,2013-03-28 02:32:00,
2013-03-27 21:42:00,50.0,42.0,-100.00,WNW,283,3.0,-999.0,74,0.00,,,-99.99,,2013-03-28 02:42:00,
2013-03-27 22:22:00,49.0,43.0,-100.00,North,10,3.0,-999.0,79,0.00,,,-99.99,,2013-03-28 03:22:00,
2013-03-27 22:33:00,49.0,43.0,-100.00,North,10,3.0,-999.0,79,0.00,,,-99.99,,2013-03-28 03:33:00,
2013-03-27 22:43:00,49.0,43.0,-100.00,North,10,3.0,-999.0,79,0.00,,,-99.99,,2013-03-28 03:43:00,
2013-03-27 23:23:00,46.0,44.0,-100.00,NNW,334,3.0,-999.0,92,0.00,,,-99.99,,2013-03-28 04:23:00,
2013-03-27 23:32:00,46.0,44.0,-100.00,NNW,334,3.0,-999.0,92,0.00,,,-99.99,,2013-03-28 04:32:00,
2013-03-27 23:42:00,46.0,44.0,-100.00,NNW,334,3.0,-999.0,92,0.00,,,-99.99,,2013-03-28 04:42:00,